Theta_e
355 358 357 357 359 358 357 361 360 359 359 359 357 358 358 360 354 357 360 359 358 361 360 362 361 359 356 359 356 361 366 365 364 369 368 369 369 370 366 372 370 369 370 365 360 364 367 367 368 367 371 368 370 361 357 355 359 356 356 362 355 356 355 355 352 355 362 367 360 356 356 358 351 359 354 354 355 359 358 359 367 359 356 356 353
354 356 357 356 356 356 356 357 360 359 358 357 358 357 357 359 360 360 354 359 359 358 360 357 360 359 355 357 361 361 366 371 358 364 367 368 364 359 361 371 373 370 370 370 369 361 365 364 369 364 370 363 360 355 355 352 351 348 360 352 355 357 358 357 360 357 354 364 362 364 358 359 352 364 358 356 355 361 356 358 357 356 351 353 352
352 355 353 353 355 356 357 357 357 358 357 359 355 358 357 357 361 359 355 354 359 360 358 356 365 364 364 366 370 367 371 365 365 365 366 368 366 360 357 364 365 362 362 365 362 367 364 366 362 363 357 358 360 357 355 358 354 354 354 359 356 355 360 368 364 358 355 358 364 357 359 363 360 359 362 360 362 359 361 360 352 353 355 355 354
357 356 357 352 351 353 355 356 354 354 354 356 355 356 357 357 359 357 356 358 354 362 362 360 363 368 363 367 368 369 368 367 363 364 367 369 368 368 368 368 365 364 363 362 361 363 361 363 360 361 361 364 365 368 365 357 358 366 369 367 364 365 366 369 369 363 361 354 363 360 363 362 363 363 362 360 357 359 358 360 360 358 358 357 356
359 357 357 357 353 351 351 351 352 353 353 354 355 355 356 356 357 356 356 356 361 356 361 361 369 367 357 361 366 366 365 366 366 360 363 366 366 362 364 367 365 367 365 367 364 367 366 364 363 364 368 360 364 361 360 362 365 366 361 366 369 369 366 369 368 370 362 359 359 364 366 364 364 363 364 360 360 362 368 364 361 359 360 358 353
359 358 356 355 356 353 351 349 349 350 350 351 352 354 355 355 356 357 358 357 359 357 356 357 360 365 364 363 365 368 367 367 368 367 360 362 362 362 366 367 364 363 362 360 361 363 360 363 363 363 362 361 361 365 369 369 369 364 363 366 370 372 368 369 369 367 368 365 363 357 360 360 361 371 369 365 361 359 361 363 364 363 363 361 356
358 358 352 354 358 355 356 353 351 348 349 349 349 350 353 354 356 355 356 357 355 355 356 359 362 360 365 361 360 366 367 362 370 370 367 363 365 364 360 360 362 362 361 359 357 358 358 357 362 362 361 363 360 361 367 368 361 367 371 370 370 369 366 367 362 359 364 361 360 359 357 362 363 356 364 365 362 362 359 358 358 362 366 368 363
359 359 357 354 357 357 358 357 351 351 351 355 353 348 349 354 354 356 358 357 354 354 354 353 355 361 361 359 364 365 368 366 370 372 368 362 367 363 362 361 360 361 360 358 358 356 356 355 353 359 365 369 366 369 370 364 369 366 369 364 372 369 365 366 365 366 362 359 359 355 359 357 357 360 360 363 360 358 362 355 347 356 357 362 360
362 360 359 358 358 359 358 358 360 364 358 356 353 354 351 354 356 356 357 355 354 354 354 354 354 357 359 362 361 360 361 364 365 367 368 370 367 364 363 362 361 361 360 358 358 357 354 351 352 354 368 365 362 370 370 366 363 365 372 371 368 366 367 367 364 366 364 359 357 358 356 354 357 357 358 359 355 348 352 359 356 356 356 355 360
363 361 361 360 361 362 362 361 361 364 362 363 361 355 352 352 355 353 354 353 354 356 355 355 354 355 356 361 360 357 359 360 366 368 370 370 367 365 363 368 365 362 362 361 356 356 356 353 353 358 360 360 357 366 367 362 365 359 366 367 370 367 364 362 361 359 359 358 355 353 349 348 345 347 348 347 347 353 356 357 355 356 357 357 359
361 360 362 367 366 365 365 365 365 363 367 371 366 362 364 365 363 363 354 352 353 361 356 350 352 353 353 355 356 353 355 345 338 336 342 354 365 366 365 369 365 364 359 363 363 359 355 353 349 355 364 362 368 373 367 361 363 361 360 362 366 366 358 356 355 356 355 353 354 350 347 347 351 351 350 349 354 355 356 358 358 358 356 353 350
356 357 357 359 359 352 350 349 356 360 360 359 361 368 367 368 369 367 364 354 367 355 353 357 359 352 349 356 354 353 343 333 329 332 337 337 349 364 359 358 358 359 357 356 357 355 352 350 350 353 356 360 359 373 370 368 363 363 361 360 359 359 358 359 357 354 354 352 354 353 352 351 353 356 353 353 357 358 360 360 359 357 354 353 353
358 356 356 356 354 353 349 350 347 344 346 346 346 352 354 360 361 364 363 364 356 363 366 362 359 358 353 358 353 348 341 328 328 331 332 332 336 353 357 357 353 351 352 353 354 356 358 361 353 353 359 365 358 359 367 371 371 362 361 360 361 357 345 342 346 358 358 358 355 354 356 358 356 358 361 363 364 359 359 356 357 358 358 355 354
359 356 356 356 353 348 349 347 344 347 349 345 344 346 351 353 357 359 357 361 363 363 355 358 359 366 365 355 348 342 335 324 323 326 327 328 333 342 354 354 353 352 354 351 351 357 357 358 359 358 352 346 344 347 354 358 365 366 368 368 367 367 361 347 343 341 349 353 355 353 358 363 360 365 368 364 360 357 356 355 357 355 354 354 356
351 352 350 352 350 348 348 343 345 348 349 346 343 344 348 351 353 353 356 356 351 348 345 347 350 352 352 348 340 332 324 318 319 321 322 324 330 344 356 354 351 351 351 357 359 362 362 360 361 356 348 342 337 339 348 351 352 356 360 360 360 362 362 355 359 360 363 357 356 357 359 364 360 359 362 363 361 360 361 359 358 357 357 360 359
350 348 347 348 349 349 349 346 345 348 350 348 347 347 349 351 354 357 358 356 353 347 350 351 351 353 351 342 338 332 325 316 316 317 319 321 328 357 363 358 355 356 359 359 358 359 356 357 359 352 345 340 331 327 336 349 355 357 359 359 359 359 359 364 342 350 358 358 359 357 355 353 341 352 351 347 353 354 355 358 358 357 354 351 349
346 347 350 348 349 348 347 348 348 349 351 350 350 352 355 357 359 357 357 355 348 345 344 346 349 350 347 341 333 330 327 318 314 314 316 317 340 360 361 362 362 359 357 356 354 351 351 349 348 347 344 339 327 320 325 344 355 355 355 355 355 356 357 359 349 345 339 337 337 339 337 334 334 330 327 328 336 344 355 353 351 350 349 346 348
347 348 344 349 350 350 350 351 353 352 351 350 350 355 356 356 354 355 355 351 345 344 345 345 346 345 342 336 332 329 326 318 312 312 314 316 335 355 360 362 358 356 355 355 354 351 351 354 348 343 341 337 320 320 322 343 350 350 351 350 351 352 353 354 353 353 343 342 343 341 342 340 338 336 339 335 336 350 353 349 350 350 347 347 345
348 347 345 347 349 351 351 349 352 350 348 345 346 351 353 351 351 353 352 350 346 345 347 343 340 340 340 338 336 330 326 322 312 312 312 314 332 355 360 357 353 351 351 352 353 352 345 345 343 335 335 326 316 318 321 338 346 346 348 348 349 350 349 347 346 347 351 352 356 359 358 357 364 363 361 354 356 359 357 353 351 350 346 346 346
347 348 348 347 350 349 350 348 349 347 347 347 347 348 350 348 348 348 349 348 347 346 346 341 338 338 337 336 334 330 326 323 318 311 311 313 320 346 347 349 347 348 351 350 351 351 347 343 337 322 318 317 314 313 315 318 338 344 348 347 345 344 343 343 347 348 352 354 355 355 357 358 357 357 354 353 357 360 357 356 352 349 347 347 346
346 346 347 347 347 347 346 344 344 345 345 342 342 341 342 342 343 342 340 338 338 337 336 336 334 333 334 333 332 331 328 325 321 312 311 312 315 329 337 337 344 345 344 346 347 347 344 340 337 324 315 314 313 311 311 315 324 341 345 340 340 335 329 340 346 351 354 355 354 353 358 358 355 352 355 355 357 357 358 356 357 353 349 348 346
339 338 340 342 343 343 343 343 342 342 342 340 338 338 339 340 339 339 338 336 334 332 332 332 331 329 329 329 328 328 330 329 326 317 312 311 311 316 328 330 334 344 341 344 344 341 340 339 336 325 313 312 310 310 310 313 318 340 340 317 314 318 333 339 344 349 349 349 348 348 346 347 345 346 347 346 344 347 347 356 360 356 355 355 353
338 337 337 338 340 343 344 341 340 340 339 338 337 336 337 337 336 337 336 335 333 332 331 330 329 327 327 327 327 327 328 329 326 327 316 311 310 312 314 322 321 345 341 337 338 335 339 336 333 327 311 307 306 308 311 312 328 333 313 314 317 319 330 341 349 347 345 345 344 344 342 342 342 341 341 341 341 346 345 346 347 344 350 354 362
337 337 337 337 336 336 336 336 336 336 336 337 337 335 335 335 336 336 335 334 332 331 332 332 330 328 327 328 328 330 330 329 329 328 325 315 312 310 312 313 315 329 330 326 325 323 326 326 328 311 306 304 306 310 312 318 326 313 310 315 319 329 337 345 339 343 344 342 341 339 338 340 338 338 338 341 342 344 347 344 340 340 342 343 345
335 333 332 332 333 333 335 335 335 336 336 336 335 335 335 336 335 336 335 334 333 331 331 331 330 329 330 330 330 331 333 333 332 331 329 325 317 315 315 317 316 318 329 325 328 329 323 314 311 309 310 308 309 312 315 319 316 315 316 318 335 345 339 336 337 339 338 335 334 335 336 336 337 337 341 345 345 346 341 338 337 339 339 340 341
336 333 330 330 330 330 328 330 332 333 333 334 335 336 336 334 335 334 334 333 333 332 331 330 330 329 328 329 329 332 333 334 334 333 334 332 328 321 320 324 331 330 328 325 327 322 318 315 314 313 318 321 332 337 339 342 330 327 325 332 338 334 332 334 334 334 332 329 330 331 330 332 333 336 342 343 344 336 335 333 332 333 334 335 333
334 334 332 330 330 329 327 325 326 329 332 329 329 331 333 332 331 330 331 333 335 331 329 330 330 328 328 327 328 331 332 330 326 324 324 325 326 325 325 324 326 328 324 320 322 324 329 335 331 322 319 321 323 326 327 330 337 338 336 325 330 329 334 334 329 328 329 328 329 328 330 332 335 337 334 334 335 334 334 333 330 330 331 331 332
329 331 328 328 329 328 327 330 329 327 326 325 325 326 329 328 323 322 320 321 326 332 331 330 329 329 328 328 330 329 323 321 320 318 317 319 320 321 320 319 317 320 318 316 316 323 328 333 331 338 337 336 338 333 331 336 333 327 330 324 329 328 330 331 329 328 328 329 331 331 331 332 330 329 330 328 330 330 331 331 330 330 329 329 328
332 328 330 330 330 332 329 328 328 326 322 320 317 314 315 324 323 318 314 313 316 323 329 327 325 322 322 324 328 323 319 315 314 309 311 305 311 316 315 313 312 315 315 305 315 324 330 334 334 334 328 325 324 326 325 326 327 327 324 325 327 325 327 324 322 322 325 327 326 326 326 327 328 328 327 325 327 327 329 330 331 328 329 330 326
331 330 331 329 328 327 334 327 328 327 323 321 318 315 310 300 307 318 315 310 304 303 308 318 321 321 317 315 318 321 316 314 305 298 296 295 296 297 296 295 296 302 303 304 315 323 329 331 326 321 323 324 321 322 321 323 323 324 325 324 326 324 324 323 321 323 325 325 323 322 325 326 324 325 323 323 325 325 326 325 327 329 327 323 322
334 329 330 327 328 331 328 326 327 327 325 324 322 319 317 312 297 297 304 305 302 298 298 299 302 308 320 315 310 304 303 299 296 295 296 295 294 294 294 294 295 295 298 309 320 326 329 326 323 323 324 324 323 321 323 322 322 323 322 323 324 324 323 321 321 323 324 321 321 322 324 323 322 321 320 322 322 322 324 325 325 326 323 322 321
330 326 328 330 334 334 330 330 327 327 325 325 323 322 320 317 315 300 295 298 298 297 297 297 298 299 301 310 320 314 303 297 295 295 295 295 294 294 294 294 295 295 297 301 319 325 323 323 323 322 323 322 321 323 322 321 321 322 322 321 321 322 321 320 321 322 320 319 318 320 322 321 320 320 321 321 320 321 321 321 321 321 322 321 321
328 329 331 332 334 329 329 330 328 328 325 326 325 324 321 319 317 316 313 299 295 295 295 296 296 297 297 295 297 301 301 296 295 295 296 295 293 294 293 295 297 297 303 322 324 322 322 322 320 320 320 320 320 320 321 319 320 320 321 320 319 320 320 323 324 320 318 318 319 320 320 319 319 320 319 319 319 318 319 319 319 319 319 318 318
329 328 330 330 332 331 330 331 330 330 329 331 326 325 324 322 320 318 317 316 316 309 301 296 295 297 294 294 295 295 294 296 295 295 294 294 293 294 293 302 298 296 304 319 323 320 320 320 320 320 320 320 320 320 320 320 320 321 320 319 320 320 320 324 319 317 317 318 319 319 319 318 319 317 316 317 317 317 316 316 316 315 315 314 313
327 329 329 329 329 329 330 330 328 329 331 327 327 325 327 330 323 322 320 319 319 317 315 315 306 305 310 304 294 293 295 295 295 295 293 293 293 293 298 316 323 323 317 321 320 318 318 318 318 318 318 318 319 319 317 318 318 318 317 317 317 316 319 319 316 318 318 318 318 318 318 319 317 316 315 314 314 313 314 314 314 314 313 312 311
326 328 325 326 326 327 328 328 327 326 326 327 326 325 325 323 321 321 320 322 322 319 317 316 315 308 304 301 293 293 293 294 294 293 294 293 292 297 317 322 320 320 320 319 318 318 319 317 318 318 317 317 317 316 316 316 317 317 317 316 315 316 317 316 316 318 319 317 316 318 316 316 316 314 313 313 313 312 312 312 312 311 311 310 311
321 320 322 327 329 326 327 326 323 323 322 324 324 324 323 321 321 321 322 322 321 320 319 318 315 313 312 316 308 295 291 291 291 290 289 291 292 309 316 319 321 321 320 317 318 319 318 317 318 317 317 316 315 315 316 316 316 316 317 317 317 318 315 316 317 319 316 315 316 316 315 314 314 313 311 310 310 310 310 310 309 309 310 311 311
320 319 320 321 325 325 325 325 320 320 325 321 325 325 322 322 321 321 321 321 321 322 321 319 319 316 316 317 318 317 313 301 299 304 303 304 313 317 321 320 319 319 317 318 318 319 317 319 317 316 315 315 315 315 314 314 315 314 314 315 317 317 316 316 318 317 316 313 312 313 313 313 313 311 310 308 308 308 308 308 308 308 308 309 309
319 318 319 321 322 325 324 323 322 320 319 321 319 318 318 317 319 319 320 320 322 317 321 319 317 318 318 318 316 315 317 314 314 315 317 318 321 320 318 318 318 317 317 317 316 316 315 314 314 314 314 314 314 315 314 313 314 314 315 314 313 313 313 312 312 313 311 310 310 311 311 310 307 306 307 306 306 306 306 306 307 308 307 306 306
318 316 319 320 318 318 321 321 321 319 317 317 317 317 317 316 318 317 316 317 316 316 316 318 315 313 312 311 310 311 310 310 312 317 318 318 317 318 319 316 316 315 315 314 314 313 313 312 313 313 314 314 313 312 312 312 311 312 312 311 310 310 310 310 309 309 309 309 309 309 307 305 305 305 304 304 304 304 304 305 306 306 306 306 306
315 316 318 318 318 318 318 316 316 317 317 317 317 316 316 317 318 317 316 316 316 316 316 315 312 311 307 304 300 303 308 308 311 315 316 315 316 315 315 314 314 313 313 313 313 312 312 312 311 312 311 311 311 311 310 310 310 309 309 310 309 309 308 308 307 306 306 306 305 304 304 304 304 303 302 302 304 303 303 304 304 304 305 305 306
314 314 317 316 315 315 315 314 314 318 318 318 318 316 318 316 316 315 315 316 315 315 314 314 311 309 303 297 296 294 305 309 312 314 314 314 314 314 313 316 316 316 312 311 312 312 311 312 310 310 308 308 308 308 308 307 308 307 307 307 307 307 306 304 304 304 304 303 304 303 303 303 303 303 302 303 301 301 301 301 301 302 302 304 305
317 314 314 314 314 314 313 314 316 316 317 317 316 315 317 316 314 316 315 315 314 314 314 313 311 310 308 302 302 298 308 310 311 312 312 312 312 312 313 311 310 311 312 311 311 311 310 309 309 308 307 307 308 307 306 306 306 306 305 305 305 303 302 302 302 302 302 302 302 302 301 301 301 301 300 301 300 300 299 300 301 301 302 303 303
316 313 314 313 314 314 315 314 314 316 316 316 316 317 314 315 314 314 312 313 313 313 312 313 313 310 310 306 306 306 311 312 312 310 310 311 311 310 310 309 309 309 309 309 309 309 308 307 307 306 307 306 307 307 306 305 305 304 304 304 302 301 300 300 300 300 300 300 300 300 300 300 300 299 299 300 299 299 299 300 300 300 301 301 302
312 313 311 311 312 313 312 315 312 316 317 317 314 314 315 313 311 312 312 312 312 312 311 313 313 312 311 311 312 311 310 310 310 310 310 308 308 308 308 308 307 308 307 307 308 308 307 306 305 305 305 305 306 305 304 304 305 304 303 301 299 298 298 299 300 301 300 299 298 298 298 299 298 298 298 298 299 298 299 299 299 300 300 301 301
310 310 311 309 310 311 312 313 316 314 312 311 311 310 310 310 311 311 311 312 312 310 310 311 311 310 310 309 309 308 309 309 308 308 308 308 307 307 307 306 306 306 306 306 306 306 305 305 304 303 303 304 304 303 304 304 303 303 302 300 299 298 298 299 300 300 298 297 297 297 297 298 297 297 299 298 298 298 298 298 299 299 299 300 301
310 310 310 310 311 313 315 315 313 313 313 310 310 310 309 309 310 311 312 310 310 311 311 310 309 308 308 309 308 308 308 308 307 306 306 307 307 306 306 305 305 304 304 305 305 304 304 304 303 303 303 303 303 303 302 302 302 302 301 298 298 297 297 298 299 298 297 297 297 297 296 296 296 297 297 298 298 297 298 298 299 299 299 300 300
309 310 310 311 311 310 312 312 312 311 311 311 310 310 310 310 310 310 310 309 308 307 308 308 308 309 309 308 307 307 307 306 306 306 306 305 305 304 305 304 303 303 303 303 303 303 303 303 303 302 302 302 302 301 302 302 302 302 300 297 297 296 296 296 298 297 296 297 297 296 296 295 295 296 296 296 296 297 297 297 299 299 299 300 300
310 310 309 310 310 310 310 309 310 309 309 310 310 310 309 309 309 308 308 306 306 306 308 308 307 308 307 307 306 306 305 306 305 305 304 304 304 304 304 303 303 302 302 302 302 302 303 302 303 302 302 302 302 301 301 301 301 301 299 297 295 293 292 294 295 294 294 296 296 295 295 295 295 296 296 296 296 297 297 297 298 299 299 299 299
311 311 310 310 310 309 311 310 309 308 311 311 310 308 308 308 307 307 308 307 307 306 307 307 307 306 306 305 305 305 305 304 304 304 304 303 303 303 303 303 303 302 302 301 301 301 302 302 302 302 302 302 301 301 301 301 301 300 298 296 291 290 290 292 292 292 293 294 294 295 295 295 295 295 296 296 296 296 297 297 298 299 299 298 298
309 309 310 309 309 309 309 309 308 308 310 309 308 308 307 306 307 307 307 306 306 306 307 306 306 305 305 305 304 304 303 303 303 303 303 303 303 303 302 302 301 302 301 301 301 301 301 301 301 301 301 301 301 300 301 300 299 298 295 292 289 287 287 290 293 289 289 291 294 295 295 295 295 295 295 296 296 296 297 298 298 298 299 299 299
Wind_Speed
13 10 10 9 10 11 11 9 9 9 9 9 8 8 7 6 7 7 5 6 6 8 6 5 6 7 7 5 6 6 4 4 4 4 4 3 2 2 1 2 2 2 3 3 4 3 4 2 2 2 2 2 2 3 4 3 4 6 5 3 3 3 4 4 4 3 2 2 4 6 6 6 6 4 5 4 5 5 4 5 4 5 8 8 5
12 10 9 9 11 12 12 10 10 8 10 10 8 7 7 5 5 5 8 6 6 8 7 6 5 5 6 5 4 4 3 3 4 3 3 3 4 4 5 3 3 3 2 2 2 4 3 1 2 3 3 4 4 5 5 4 3 4 2 5 5 5 5 3 2 2 3 2 4 3 5 6 6 4 6 7 5 4 6 5 5 4 4 5 7
12 10 10 9 9 10 10 11 10 10 11 8 11 8 7 7 5 5 6 8 6 5 6 7 5 5 3 3 2 3 2 3 3 3 4 4 4 4 4 5 5 4 4 4 4 3 4 3 3 4 5 4 5 5 4 3 3 4 4 4 5 5 3 2 1 1 3 3 3 5 4 4 5 6 6 6 4 5 5 4 6 7 6 7 6
11 10 8 11 13 12 10 10 12 12 11 10 12 10 8 7 6 7 6 1 6 4 4 5 6 4 4 3 3 3 4 5 4 4 3 3 3 3 3 2 2 3 4 4 4 4 4 4 4 4 4 3 2 1 2 3 4 3 1 1 3 2 3 2 2 2 2 4 2 4 3 4 4 5 6 5 6 5 5 4 4 5 6 6 5
9 11 9 9 11 11 12 12 11 11 11 10 11 10 9 8 6 8 7 6 2 5 7 5 3 4 6 6 5 5 5 5 4 5 4 4 4 4 3 3 4 3 4 3 4 3 3 3 4 3 3 3 3 2 3 4 2 2 3 2 1 2 2 2 2 2 3 4 4 3 4 4 5 6 5 4 4 4 3 4 5 5 6 5 6
9 10 10 8 9 10 10 11 12 12 12 11 11 10 9 8 8 7 6 4 4 4 6 6 5 5 4 5 6 4 4 4 4 4 4 3 4 4 3 2 3 5 4 5 5 5 5 4 4 4 3 3 3 2 2 2 2 2 3 3 0 1 2 2 2 3 2 2 3 4 5 6 3 2 3 4 4 4 4 5 5 6 5 4 3
9 9 11 10 8 9 8 8 9 11 10 10 9 9 9 9 8 8 8 7 7 7 6 4 6 7 5 4 6 5 4 5 3 3 3 4 2 1 0 3 4 2 3 5 6 6 6 7 4 4 4 3 3 3 2 2 2 2 2 2 2 2 1 2 3 4 3 3 4 5 5 3 2 4 3 4 4 5 6 5 5 4 3 2 3
8 9 9 9 8 9 7 7 9 7 7 6 6 8 11 11 9 7 6 7 8 8 8 7 7 7 6 6 4 4 3 3 2 3 3 4 3 3 3 3 3 2 2 4 6 8 7 7 7 3 2 2 2 2 2 2 2 2 1 3 1 1 3 3 2 2 3 3 3 4 3 5 5 5 5 3 3 5 5 5 5 3 4 3 3
7 7 8 8 8 8 6 6 5 4 4 6 6 5 4 10 10 8 7 8 8 8 7 7 6 5 5 5 5 6 6 4 3 3 4 4 2 4 3 4 3 2 3 4 4 5 9 9 6 3 6 7 9 3 4 4 2 0 1 2 3 3 2 2 3 3 3 4 5 4 5 5 5 5 3 2 3 6 4 4 4 4 5 6 5
6 7 8 7 6 6 6 5 5 4 4 3 4 5 5 4 12 11 10 9 7 7 9 9 9 8 7 6 7 6 5 4 4 4 6 3 4 3 3 1 1 1 2 3 5 6 7 7 6 4 8 6 2 5 7 7 4 2 1 1 2 2 3 3 4 4 3 4 4 5 5 5 5 4 6 6 6 4 6 7 8 7 7 6 6
4 1 1 3 3 2 4 4 4 4 2 0 3 3 3 4 2 3 6 8 6 4 4 9 11 10 9 8 6 5 3 5 8 7 5 3 3 4 3 2 3 3 4 4 4 6 7 6 7 3 3 3 3 9 6 4 4 3 4 3 2 2 3 4 4 4 4 4 4 5 5 5 5 5 5 5 5 7 6 5 6 6 6 7 9
4 4 3 1 5 5 8 14 12 7 6 7 6 3 2 2 3 3 2 3 1 2 3 3 3 4 7 9 7 6 5 7 7 7 6 6 5 2 3 4 4 5 5 5 5 4 4 6 6 2 1 5 3 4 6 7 6 5 6 6 6 5 4 4 5 6 5 5 5 4 5 5 5 4 5 6 5 6 5 5 5 6 7 7 7
5 5 6 2 6 8 7 3 5 6 5 6 3 5 5 5 5 6 5 2 1 2 2 2 3 3 4 3 7 7 6 8 7 7 6 7 7 5 3 3 5 5 5 4 4 5 3 3 5 6 6 15 11 10 8 3 1 3 4 5 6 7 9 10 9 9 7 7 6 6 4 4 5 4 4 4 4 5 5 5 5 5 5 7 8
4 5 3 3 6 7 6 4 3 3 5 7 5 1 3 1 2 2 4 6 4 2 3 4 3 2 2 7 9 8 6 8 7 7 6 5 5 4 3 4 4 5 5 7 5 8 6 6 6 6 8 9 7 9 9 9 8 5 2 2 3 7 10 13 15 13 8 6 5 7 6 5 5 3 3 5 5 5 6 6 5 6 6 7 8
3 2 1 4 5 4 5 7 5 5 4 7 3 1 4 1 1 0 1 3 8 9 9 6 6 8 9 9 8 8 6 10 8 8 8 6 6 2 3 4 5 5 2 7 6 7 7 6 6 8 7 7 6 7 7 5 7 8 8 6 5 4 5 3 4 2 1 3 5 6 6 4 4 5 4 3 3 4 5 6 7 7 8 7 5
2 1 2 2 6 5 8 7 8 6 7 7 5 5 5 4 4 4 3 4 8 5 2 3 4 5 6 9 8 7 6 10 8 10 10 9 7 3 1 2 3 4 7 6 8 7 8 7 5 8 7 5 5 6 5 2 2 4 4 5 5 6 6 3 5 6 5 4 4 3 4 4 3 4 4 4 4 4 4 4 4 4 6 6 7
1 3 2 4 9 12 9 8 10 10 8 7 5 4 5 5 2 3 3 6 7 4 2 2 0 5 8 8 9 7 6 9 10 10 10 11 6 2 2 2 3 5 7 7 7 8 7 8 7 5 5 4 6 8 9 6 2 4 4 5 5 6 5 5 9 8 9 10 9 6 5 7 8 8 9 10 4 2 3 4 5 6 5 6 6
2 3 3 2 5 7 7 6 8 8 7 3 1 3 1 3 4 3 3 6 9 7 4 3 4 5 7 8 8 8 6 8 11 11 11 12 7 3 2 3 3 6 5 5 5 6 10 14 9 5 5 4 7 7 10 6 4 4 4 5 6 6 4 6 7 7 10 10 9 9 7 6 6 5 6 7 6 3 5 4 6 6 6 6 6
4 4 4 2 3 4 4 4 2 4 4 5 6 3 4 5 5 5 6 8 9 7 6 6 7 8 8 8 13 10 7 8 12 13 14 13 9 4 3 3 4 5 4 4 3 5 6 10 13 10 7 6 8 8 9 7 4 4 4 4 4 5 6 9 8 8 7 8 6 6 5 6 5 4 3 6 6 5 3 3 3 4 4 5 5
5 4 6 6 4 5 3 3 5 6 8 8 6 4 3 6 7 6 7 6 7 7 7 7 8 7 8 7 7 8 8 7 9 15 15 16 13 7 6 5 6 6 5 4 3 5 5 5 7 8 9 9 9 9 9 8 5 5 5 5 5 6 7 8 8 7 6 6 6 6 4 4 4 3 6 7 5 3 2 2 1 0 3 3 4
7 7 5 4 6 9 9 9 8 7 8 9 9 8 6 6 7 9 9 9 9 9 9 7 7 7 7 7 7 8 7 6 9 15 15 15 15 9 6 6 5 5 3 5 4 4 5 5 4 6 8 8 8 9 9 9 7 5 5 4 3 4 5 5 8 11 5 5 5 5 3 3 3 4 2 2 1 2 3 3 3 3 3 3 4
9 10 10 9 10 10 9 8 10 8 8 8 9 9 8 7 8 9 8 10 11 11 9 8 8 8 7 6 7 7 9 12 9 13 14 13 14 13 7 5 4 3 2 3 4 5 4 3 4 5 7 8 8 9 9 8 10 5 4 4 7 8 7 5 7 4 6 6 6 5 6 5 6 5 5 6 6 7 7 5 3 4 4 4 4
9 9 9 9 8 6 6 9 8 9 9 9 9 9 7 8 8 8 9 10 10 11 10 8 8 7 7 5 5 6 6 6 11 10 11 12 13 13 13 10 12 4 4 4 4 4 3 2 2 6 7 7 7 7 7 9 8 3 8 9 8 10 8 5 3 5 5 4 5 5 5 5 5 5 5 6 6 6 7 6 6 7 5 4 4
9 9 8 8 9 9 9 10 10 10 10 8 8 8 7 7 7 6 7 7 7 8 7 7 8 8 6 5 4 5 5 5 7 9 8 11 11 12 12 14 13 7 6 6 5 4 3 3 3 5 7 7 7 5 7 7 7 11 10 9 8 7 5 4 5 5 5 4 4 5 5 5 5 5 6 5 6 5 5 7 9 8 7 6 6
8 9 9 8 8 9 8 7 8 8 8 8 8 7 7 7 7 6 6 6 7 7 7 6 5 5 5 5 5 5 4 4 4 5 8 11 10 8 9 11 11 10 6 6 4 3 3 4 6 7 7 9 9 8 6 7 10 10 11 11 7 2 5 6 5 5 5 6 5 5 4 5 5 5 5 4 4 4 6 7 7 7 7 7 7
6 8 9 9 9 9 9 9 9 9 9 8 7 6 6 5 5 6 6 6 5 6 6 6 5 5 5 5 4 4 4 5 5 5 3 3 5 9 9 8 11 11 9 8 11 9 8 9 10 10 9 7 4 3 1 2 6 8 9 9 3 4 4 5 4 5 5 6 5 6 6 5 5 5 5 5 4 6 6 6 6 6 7 7 8
5 5 7 8 8 8 8 7 7 7 8 8 7 6 7 8 7 8 7 4 4 7 5 6 6 6 5 5 4 4 4 6 7 6 6 6 5 5 5 6 9 8 6 7 8 6 7 7 5 8 9 10 9 5 5 5 6 4 2 5 4 5 3 4 5 5 5 5 5 5 5 5 5 5 6 6 6 6 4 5 5 6 6 7 7
6 7 7 6 6 7 6 9 9 9 9 9 8 7 6 8 8 8 7 6 6 4 5 4 3 4 5 5 5 6 7 6 6 5 4 5 5 5 6 6 7 6 6 6 6 6 5 7 8 5 5 5 4 4 3 3 3 4 4 4 3 5 5 10 9 5 4 4 3 4 4 5 6 6 6 6 6 6 5 5 5 6 6 7 5
4 5 5 6 7 5 5 6 9 10 10 11 10 8 6 7 8 7 7 6 5 4 4 6 7 6 5 5 3 7 6 6 3 3 4 4 4 4 6 5 5 4 5 7 6 5 4 5 4 3 4 3 5 5 5 5 5 5 7 5 3 5 5 7 6 6 6 5 6 6 5 5 5 5 6 6 6 6 5 5 4 5 5 5 5
3 4 4 4 4 2 1 7 9 9 10 9 9 9 13 14 10 6 6 9 12 14 11 7 5 6 7 6 5 6 6 4 2 1 7 7 6 6 3 3 4 5 9 13 4 3 4 4 4 5 5 5 5 5 6 6 6 5 5 5 5 6 5 7 6 6 5 5 6 6 6 5 5 5 6 6 6 6 6 6 6 6 5 6 6
3 4 3 3 5 6 4 6 9 9 8 8 7 7 6 8 12 12 9 7 10 14 15 16 16 12 8 7 9 13 11 7 4 5 9 8 9 10 10 11 10 9 9 9 5 4 3 4 5 4 5 4 5 5 5 5 5 5 5 5 5 7 6 6 6 4 5 6 6 6 5 5 5 6 6 5 6 6 6 6 6 6 6 6 6
0 3 3 3 3 3 6 6 7 7 7 7 6 5 5 6 6 8 9 8 9 12 14 15 14 15 13 9 6 4 5 6 6 7 7 7 7 8 10 11 12 10 10 1 1 5 6 6 6 5 5 5 5 4 5 5 5 5 5 5 5 6 6 6 5 5 6 6 6 5 5 6 6 6 5 6 6 6 6 6 6 6 6 5 6
7 3 4 2 3 4 4 6 6 5 5 4 4 5 6 5 5 4 5 7 10 10 11 12 13 12 13 13 11 8 5 3 5 6 6 6 6 7 9 11 10 10 11 5 4 5 5 6 6 6 6 6 6 5 5 6 5 5 5 5 5 6 6 5 4 7 5 6 6 5 5 5 5 5 5 6 6 6 6 6 6 6 6 7 7
5 6 5 3 4 5 4 5 5 4 2 0 3 3 3 5 7 5 5 4 4 7 9 10 10 12 10 9 9 7 6 5 3 2 3 5 6 6 6 8 13 4 4 2 5 5 5 5 5 5 4 4 4 4 5 5 5 5 5 5 5 6 6 5 6 6 5 5 5 5 5 5 5 6 6 6 6 7 7 7 7 7 7 7 8
4 6 10 8 5 5 4 3 3 3 1 1 2 1 1 1 4 7 6 5 5 5 4 2 2 3 5 4 4 5 5 2 1 2 4 5 6 9 8 6 2 2 0 1 5 6 5 5 5 5 5 5 5 5 5 5 5 5 5 5 5 5 5 4 5 4 4 5 5 5 4 5 6 6 6 7 7 7 7 7 7 7 8 8 8
3 2 3 5 5 3 4 4 6 6 5 5 5 3 2 1 1 1 2 3 3 7 6 4 4 3 7 5 5 5 4 2 2 3 4 3 4 5 5 4 4 3 4 5 5 4 4 4 4 5 5 4 5 5 5 5 5 4 4 5 5 5 4 5 4 4 5 5 5 5 5 5 6 6 6 6 7 7 7 7 8 8 8 8 7
4 5 5 3 2 4 3 5 7 4 3 2 2 4 4 5 4 3 2 1 2 3 8 7 6 4 3 3 4 1 3 3 3 2 1 1 2 2 3 3 4 2 4 5 4 2 3 3 3 3 3 4 4 4 4 5 5 4 5 5 5 4 4 4 4 4 5 5 5 6 6 5 5 4 5 6 6 6 6 7 7 8 7 9 9
4 3 3 3 3 4 3 4 5 3 1 1 2 3 2 4 5 3 3 1 1 1 8 8 8 6 5 4 8 4 3 1 5 5 4 3 2 3 3 3 3 4 5 4 4 4 4 4 5 4 5 4 4 4 4 4 4 4 4 4 4 4 7 5 5 6 6 7 7 7 6 6 6 8 8 7 7 7 7 8 7 7 7 8 7
4 5 6 5 3 2 3 3 3 2 2 2 1 1 4 3 3 3 2 2 1 1 2 1 1 3 5 4 5 6 3 0 3 4 4 5 1 5 4 3 3 4 4 4 5 5 4 5 5 5 5 4 5 4 4 4 4 4 4 4 4 5 5 5 5 5 5 6 7 7 7 9 10 9 8 8 8 9 9 10 9 8 8 7 7
5 4 4 6 3 3 3 2 2 2 1 3 4 3 3 4 4 3 3 3 2 1 2 1 7 9 7 7 5 5 4 5 7 2 3 4 4 4 3 4 5 5 4 5 5 4 5 5 5 4 4 4 4 5 5 5 6 6 6 6 6 6 7 7 8 8 7 6 6 7 10 9 8 8 8 8 9 9 10 10 10 10 9 9 7
2 3 5 2 3 2 3 2 1 2 3 4 5 5 5 4 4 3 3 3 2 2 4 5 7 6 6 7 7 5 2 4 5 4 4 3 4 3 4 4 3 3 4 5 5 5 5 5 4 5 5 6 6 6 6 6 6 6 5 5 5 6 6 7 9 9 9 9 9 9 9 9 9 8 8 8 9 9 9 10 10 10 10 10 10
3 2 4 4 3 2 2 2 3 5 5 5 5 4 3 3 2 2 3 3 3 2 3 4 7 5 4 7 5 3 1 2 2 3 4 3 3 4 2 2 3 4 4 5 4 5 4 4 5 5 6 6 6 6 6 6 7 8 8 8 8 8 8 9 8 8 9 8 8 9 9 9 9 9 9 10 9 9 9 9 10 11 10 10 10
3 4 3 3 4 4 3 4 4 3 3 3 3 3 2 2 3 2 2 2 2 2 2 4 7 5 3 1 2 2 2 2 1 2 3 4 3 2 3 5 6 6 5 4 5 5 5 5 5 5 6 6 6 6 6 6 7 7 7 7 8 9 8 8 8 8 8 8 8 9 9 9 9 9 10 10 10 10 10 10 10 9 9 10 10
2 5 3 2 3 4 4 3 2 2 3 4 3 2 2 2 2 3 3 3 3 3 2 2 8 6 4 3 4 4 3 2 4 5 4 3 4 5 6 7 7 6 6 6 6 5 5 5 6 6 6 5 6 6 6 6 7 6 7 7 7 8 8 7 8 8 8 8 8 8 8 9 10 9 10 10 10 10 10 10 11 10 10 10 11
1 2 4 4 3 3 4 5 5 3 2 1 4 3 3 4 3 3 4 4 4 3 3 2 3 5 5 4 3 2 4 3 3 3 4 5 4 5 5 6 6 5 4 4 5 5 5 5 5 5 5 5 4 5 5 6 6 6 7 8 7 7 7 7 7 7 7 8 8 8 8 8 9 9 10 10 10 10 10 11 11 13 11 10 11
3 2 3 4 4 4 6 4 3 3 4 3 2 2 2 2 3 4 4 4 4 3 2 2 3 3 3 2 3 3 3 3 4 4 4 5 5 4 5 6 6 5 5 5 5 4 4 3 3 4 5 5 5 5 5 5 5 5 7 7 6 5 5 6 6 7 7 7 7 8 8 9 9 9 11 10 10 10 10 11 11 11 11 11 11
4 4 3 4 4 3 2 1 2 2 3 3 4 5 4 5 6 5 3 5 2 2 2 3 3 3 3 3 4 4 3 3 4 4 4 3 3 4 5 5 4 4 4 4 4 4 4 4 4 4 4 4 4 5 5 5 5 4 6 6 5 5 5 5 6 6 6 7 7 7 8 8 9 9 10 10 10 10 11 11 11 12 12 12 11
4 4 4 3 4 4 4 3 3 2 2 3 5 6 6 6 4 3 4 4 2 0 1 2 2 3 4 4 3 3 4 4 3 3 2 4 5 5 4 4 4 4 3 3 3 3 4 4 4 4 4 5 5 5 4 4 3 3 5 5 5 4 5 6 5 6 6 6 7 8 9 9 9 9 10 10 10 11 11 11 11 11 12 11 11
2 2 3 4 4 4 4 4 3 3 4 5 6 4 4 4 4 3 3 3 3 3 2 2 3 5 4 4 3 3 3 3 3 3 4 4 4 4 4 3 3 2 3 3 3 4 5 4 4 4 4 4 4 4 4 4 4 4 7 5 5 6 7 9 7 6 7 7 7 8 9 9 10 10 10 10 10 10 10 11 11 11 11 12 12
5 4 3 4 3 3 3 3 4 4 3 2 3 1 2 3 3 3 3 3 4 3 2 4 4 3 3 4 4 4 4 3 3 3 3 3 2 2 1 1 2 2 3 3 4 4 4 4 4 4 4 4 4 4 4 4 5 6 5 5 6 7 7 8 9 9 7 6 7 7 8 9 10 10 10 10 10 11 11 11 11 11 11 12 12
7 7 5 5 4 3 4 3 3 3 2 2 2 2 3 3 3 3 3 3 3 3 3 3 3 3 2 4 4 4 4 3 3 3 2 2 2 3 4 5 5 4 4 4 4 4 4 4 5 5 4 4 4 3 4 4 5 4 5 7 6 6 7 7 5 5 6 5 6 7 8 9 9 10 10 9 10 10 11 12 11 11 9 10 11
Wind_Direction
177 186 178 191 172 179 187 187 193 196 174 197 197 182 190 189 190 185 189 170 182 172 197 190 185 182 192 192 207 173 185 197 182 167 177 188 248 279 334 216 195 222 219 263 288 204 223 203 271 288 319 287 297 292 294 279 209 201 213 205 222 218 208 205 234 265 268 277 302 293 304 330 308 300 309 323 338 319 326 309 301 297 286 278 295
177 182 189 186 181 183 186 190 194 195 196 188 204 184 189 194 188 196 181 179 185 183 191 194 193 189 199 185 213 172 165 193 204 183 175 196 207 210 212 177 227 237 276 279 230 281 302 234 232 261 231 219 227 239 250 270 272 262 192 212 205 219 192 196 227 237 283 278 279 308 304 290 292 343 344 327 303 310 300 293 288 289 301 336 344
172 180 184 182 191 190 190 186 194 193 203 186 201 186 188 195 198 206 195 184 193 194 178 197 177 182 204 171 202 131 163 203 212 210 191 192 206 241 233 186 200 220 222 218 244 249 252 255 248 231 244 237 209 224 244 262 308 328 335 4 11 346 350 360 97 283 281 285 303 297 309 334 331 318 308 301 309 305 309 314 334 329 337 340 329
162 175 182 181 192 187 194 196 192 195 201 192 202 187 189 190 189 204 200 204 196 155 200 232 174 171 197 158 175 163 170 205 215 214 197 194 217 216 249 300 277 230 225 240 242 230 230 226 246 258 267 284 284 9 354 315 284 290 343 313 296 280 308 324 321 323 314 295 277 280 285 299 293 289 300 308 310 323 313 321 324 327 316 306 306
160 169 185 183 190 189 192 197 197 199 201 197 206 187 180 198 190 207 185 175 263 185 188 197 152 169 196 182 191 192 191 199 207 222 204 193 208 223 224 204 235 254 260 252 256 251 255 259 244 237 238 262 292 264 227 237 253 351 321 315 13 57 319 306 282 281 291 291 297 294 305 287 277 279 273 290 300 297 327 325 310 289 285 278 306
166 171 179 192 188 198 192 197 200 200 202 202 198 204 172 184 190 208 202 168 191 255 203 178 183 185 209 189 195 197 206 207 199 225 218 207 212 227 223 251 242 245 247 249 238 237 241 235 233 239 246 244 246 277 321 335 2 248 250 258 248 23 312 289 276 268 248 278 296 301 286 279 286 281 275 271 283 301 287 268 268 270 268 280 284
173 173 181 190 192 204 195 196 203 201 199 208 199 191 173 190 188 197 201 184 182 207 235 211 173 193 187 210 206 201 210 213 203 200 220 226 193 104 291 267 257 284 279 281 282 270 257 245 224 215 231 252 249 241 241 228 236 275 268 271 244 238 295 355 322 298 269 265 263 249 272 267 283 289 271 269 270 255 260 271 276 273 266 268 296
170 174 181 189 194 202 208 200 206 206 190 200 226 200 180 172 191 199 190 210 199 198 212 214 196 182 191 208 197 202 206 226 200 196 211 232 180 185 191 241 255 251 290 288 284 271 255 250 248 241 231 266 282 270 290 329 258 259 48 304 344 126 226 247 266 286 290 287 285 295 288 290 281 260 255 262 279 285 258 257 289 320 328 329 331
174 176 182 194 196 196 206 205 208 222 202 181 213 244 206 163 173 185 189 204 209 194 194 216 229 203 201 196 191 197 196 205 200 220 211 217 220 224 199 219 238 229 253 275 282 304 293 288 280 230 176 195 236 216 160 173 153 358 314 345 349 337 312 303 300 307 305 286 284 279 284 288 278 277 298 290 296 285 306 356 341 335 337 328 311
181 183 189 199 200 194 196 197 199 214 241 184 187 229 266 223 175 179 187 199 210 196 180 179 204 207 198 193 205 197 195 196 2 257 216 191 215 237 226 166 244 281 265 279 291 285 286 292 287 290 270 259 223 232 208 191 178 208 201 251 267 295 297 289 279 275 277 289 291 299 301 302 314 334 345 329 308 344 360 359 347 335 325 314 301
67 59 262 268 328 292 202 194 176 205 216 235 172 213 247 325 322 184 185 195 208 203 202 187 188 200 192 194 187 203 100 47 5 20 26 309 244 213 218 178 201 229 241 241 271 288 280 268 273 253 252 219 221 210 227 216 212 240 253 252 295 295 289 283 272 263 265 279 293 296 295 303 321 326 306 315 357 356 338 334 317 321 326 328 319
159 212 227 188 105 74 9 349 348 360 11 7 2 8 353 1 345 343 281 216 108 260 209 253 247 228 190 175 179 104 82 40 30 18 23 26 6 303 232 224 212 218 248 253 256 269 283 293 304 41 308 324 263 215 208 217 217 224 236 242 244 244 221 232 276 293 291 290 290 293 299 291 292 308 328 339 342 336 332 329 325 327 324 316 309
169 199 209 196 84 66 61 41 40 31 7 303 335 11 18 21 16 359 346 340 308 224 270 225 234 257 260 181 114 84 74 27 26 29 24 26 13 341 264 265 284 275 259 259 245 239 273 325 350 40 59 38 22 1 359 360 348 254 277 296 291 274 264 249 228 234 252 260 272 272 271 300 315 326 344 341 353 333 336 328 325 318 310 300 297
190 176 191 139 86 97 100 114 161 199 215 236 234 7 300 356 348 359 346 335 323 306 255 307 289 260 279 78 92 75 66 17 8 22 27 21 4 346 287 268 265 278 287 292 360 53 46 39 49 63 47 41 21 9 4 3 1 352 313 266 268 267 251 240 249 249 256 275 284 282 289 300 301 338 5 15 354 334 324 319 325 313 305 298 302
8 347 329 100 102 134 153 167 180 152 200 241 250 175 271 319 231 229 24 38 41 26 25 358 348 23 32 66 65 68 46 15 18 9 9 353 346 325 306 292 288 280 331 48 62 58 54 63 79 78 66 46 27 1 27 5 2 345 337 323 317 309 299 350 46 20 241 226 255 273 285 317 354 350 348 349 334 315 325 322 320 307 296 294 305
193 158 181 157 151 181 191 182 187 189 198 208 207 196 213 202 215 186 138 96 87 85 37 351 358 41 66 90 95 68 44 16 17 21 3 352 323 258 240 286 290 308 57 50 56 48 47 47 61 76 65 55 7 356 18 350 320 290 310 337 328 325 337 36 83 72 68 40 15 356 348 322 279 293 303 327 340 354 330 316 299 305 323 330 320
221 213 192 149 167 180 207 180 173 181 197 199 199 216 214 181 142 67 94 135 118 110 62 68 128 126 110 100 95 83 55 18 29 27 19 358 342 348 332 358 22 52 62 67 56 57 54 53 49 56 68 49 6 0 359 350 20 5 343 329 329 324 327 345 358 360 19 8 352 324 301 318 328 337 343 13 56 286 314 334 348 343 332 330 331
215 100 64 177 120 170 204 179 176 169 178 158 206 227 202 42 51 52 48 108 136 167 144 89 42 50 85 96 95 89 69 32 32 35 27 13 346 341 312 61 67 78 71 70 85 69 58 58 59 59 55 46 4 10 0 353 11 358 341 336 325 321 337 0 347 342 344 340 325 321 313 313 323 322 49 68 52 10 6 354 352 350 347 341 328
121 133 150 135 149 127 193 244 177 161 166 173 220 205 137 102 83 77 85 94 117 135 133 88 77 65 63 74 83 80 70 42 33 39 36 26 12 329 32 73 69 73 76 77 81 98 76 56 50 47 48 32 14 17 12 7 12 350 347 321 333 344 9 350 338 332 335 331 329 331 337 358 3 29 84 92 45 41 30 0 350 349 337 331 328
56 87 135 166 132 140 141 90 106 94 104 96 85 68 81 95 96 89 74 90 117 122 111 91 79 69 64 64 66 68 68 51 38 44 41 36 24 37 29 69 82 73 55 68 113 115 94 85 56 39 45 39 29 18 14 3 4 341 355 12 4 352 350 333 322 324 312 310 318 321 352 9 353 8 37 24 353 43 332 247 214 219 288 302 314
39 42 48 102 120 88 85 95 85 94 97 93 90 77 61 80 89 93 94 88 86 77 78 74 78 76 70 69 78 73 70 69 51 49 47 42 35 36 54 28 66 74 74 51 55 67 71 56 69 39 30 34 24 17 7 352 335 329 21 17 5 311 318 316 319 318 311 326 320 333 4 320 357 10 24 96 195 215 268 244 216 185 221 269 302
63 59 56 55 74 91 98 99 106 106 95 89 88 90 93 87 81 82 85 90 93 94 92 88 82 79 73 71 74 78 71 70 66 54 52 47 45 43 46 36 359 143 57 75 69 72 60 50 51 25 14 8 9 4 348 341 323 296 4 356 322 338 330 309 293 318 355 344 349 355 360 3 10 2 17 20 5 4 333 318 265 188 221 247 272
67 64 60 57 55 62 77 86 87 95 96 98 98 95 89 86 82 84 92 100 102 102 97 98 96 89 86 75 71 74 68 65 66 65 57 52 47 46 42 36 9 37 102 99 80 72 78 84 58 24 3 354 346 334 323 319 313 338 334 333 332 322 315 293 310 15 345 346 347 356 351 6 358 7 18 14 353 345 333 322 356 8 340 306 274
74 68 60 57 65 65 69 86 94 96 96 95 96 100 95 89 88 88 95 99 104 105 109 115 113 111 113 122 110 96 99 87 72 78 69 59 53 49 43 35 30 13 38 47 50 56 30 22 355 330 328 323 314 297 297 297 282 295 306 312 319 307 278 311 14 355 333 347 353 4 358 7 6 1 10 348 339 328 325 357 4 345 332 330 330
97 90 79 71 72 82 84 81 80 89 95 97 101 105 111 117 117 125 118 118 117 118 120 117 107 120 117 115 125 123 124 112 96 78 79 71 56 45 40 41 33 21 38 37 12 15 340 317 314 313 303 296 290 288 252 259 267 277 291 301 316 308 33 32 0 353 2 358 358 351 358 8 2 2 331 320 317 349 18 7 345 332 337 332 332
110 109 106 102 96 87 68 52 41 50 67 72 67 62 67 91 112 126 123 114 114 113 125 124 125 120 119 119 108 112 104 95 79 60 41 98 93 58 39 31 30 22 51 31 9 351 327 308 303 297 291 275 271 287 282 236 266 267 274 287 296 60 50 34 360 10 14 357 346 358 0 358 353 330 328 338 12 33 8 357 339 337 337 337 334
63 75 108 122 122 119 110 98 102 82 45 40 48 62 68 51 42 31 29 52 115 137 131 144 142 137 134 139 142 141 123 84 63 49 26 19 29 39 26 22 25 19 36 14 357 344 321 302 280 273 265 269 266 268 284 313 295 294 95 4 28 61 43 67 37 23 18 347 349 359 339 348 330 345 358 357 15 10 11 345 343 334 336 338 322
124 143 130 134 127 98 99 120 99 74 62 52 38 15 37 66 51 44 31 11 354 32 92 76 83 127 145 142 152 117 81 70 62 55 35 24 22 27 27 27 19 11 14 358 329 305 298 286 284 261 256 255 237 202 220 242 27 346 61 20 14 61 32 49 39 23 2 331 349 343 336 354 347 1 3 359 4 349 354 344 338 338 338 326 325
32 31 27 46 50 85 125 120 98 96 86 71 57 44 12 37 65 65 45 21 6 3 74 76 68 51 48 30 72 96 82 79 61 23 84 62 45 12 17 13 359 351 1 343 319 309 306 296 267 339 345 25 23 20 28 37 43 3 23 24 0 48 36 56 26 10 346 341 7 351 351 347 356 5 5 349 352 339 336 329 333 337 320 316 329
60 45 41 39 76 131 273 94 104 102 91 85 84 71 52 49 32 58 65 45 49 49 57 62 48 70 67 40 20 87 106 108 129 122 84 64 45 44 34 11 356 349 337 330 305 290 302 299 28 36 7 27 30 24 15 28 30 13 12 5 11 46 33 48 20 357 339 0 9 345 340 353 358 8 357 346 339 339 325 342 334 327 329 344 335
25 70 54 52 28 340 78 93 84 92 104 102 95 90 86 56 52 45 53 53 67 69 67 62 55 45 69 90 57 61 83 98 92 51 49 38 23 3 359 347 346 350 359 353 348 321 299 41 51 41 9 31 41 23 11 28 31 14 9 9 19 32 42 37 8 328 360 12 356 333 342 5 359 2 344 343 346 330 344 344 334 339 343 343 342
299 110 75 63 19 18 57 73 92 100 104 112 114 114 107 101 75 53 48 40 54 74 80 74 69 64 56 67 100 103 87 71 59 47 31 30 8 353 343 337 329 343 337 189 316 5 20 25 41 36 19 34 39 28 22 27 22 16 11 19 17 30 29 21 339 8 15 5 342 333 357 5 5 343 339 347 344 338 345 336 342 342 338 347 349
8 61 103 100 45 62 76 92 94 94 111 120 147 154 150 137 117 104 66 63 70 64 65 82 85 82 80 70 69 92 111 88 58 41 14 347 0 352 334 322 322 341 345 1 10 35 24 37 34 31 27 22 26 17 29 23 17 17 18 21 9 23 20 353 9 33 3 350 326 338 4 3 349 341 357 349 343 348 340 346 345 347 350 351 347
43 23 14 34 72 75 61 44 74 95 96 108 156 184 190 154 137 134 136 129 76 54 42 44 69 75 64 83 101 101 88 83 49 14 306 315 345 356 342 315 306 354 106 347 358 36 27 43 41 37 31 27 27 11 25 19 19 17 18 16 17 20 354 354 33 11 355 337 333 344 5 352 352 356 353 345 352 346 351 350 349 348 355 352 343
51 62 67 66 36 33 55 63 92 82 176 162 276 247 66 348 152 158 162 167 139 127 122 84 336 92 111 80 86 101 110 110 95 286 314 330 359 332 314 296 314 95 358 13 41 31 31 35 30 28 20 25 23 23 18 15 18 14 13 10 19 2 338 17 17 355 334 339 333 348 350 353 13 3 354 352 353 353 349 347 344 354 352 346 340
17 57 76 86 85 50 39 59 43 31 26 24 353 339 80 178 238 261 241 171 150 145 140 134 133 156 125 108 135 135 132 173 191 240 265 315 349 346 343 328 52 43 77 67 58 35 41 39 21 31 26 20 22 20 11 5 17 9 16 18 8 331 346 4 341 345 360 342 334 337 4 11 14 5 358 354 352 348 341 348 354 352 344 331 328
49 27 14 2 121 133 119 72 60 48 33 321 311 19 21 351 310 275 243 163 246 112 130 134 133 127 138 161 157 173 199 204 225 260 237 235 269 313 284 330 25 40 81 78 72 77 68 65 50 45 35 28 29 16 360 9 12 357 18 6 329 318 6 342 338 5 356 340 344 7 5 2 10 3 4 347 346 343 346 352 345 331 323 321 318
101 93 71 20 356 77 77 94 99 88 9 25 22 336 213 206 253 283 267 194 170 177 135 164 161 144 146 149 188 163 180 332 6 325 292 300 240 247 274 39 33 24 56 60 51 23 48 45 51 36 31 25 26 16 10 359 359 357 10 332 328 355 345 339 1 11 1 4 4 359 357 349 2 12 10 4 354 355 349 338 325 323 327 324 329
102 107 90 46 50 70 92 125 127 162 185 246 239 246 288 276 249 256 283 300 195 185 284 53 93 148 126 91 71 30 8 32 229 215 211 210 186 63 35 35 37 52 45 47 45 42 31 41 33 25 27 10 10 8 3 5 356 3 337 339 358 345 349 1 7 17 15 11 359 351 351 18 26 14 5 359 358 352 341 330 327 327 324 328 334
148 159 129 140 133 105 114 125 104 345 260 216 231 223 241 264 261 240 250 245 226 152 269 284 66 59 62 67 52 33 4 336 322 220 160 68 46 60 51 47 51 45 42 45 44 34 29 37 34 22 19 14 14 13 7 1 359 355 1 2 359 1 6 4 5 3 6 1 359 10 22 17 12 8 2 359 352 343 333 331 328 326 327 325 317
183 134 142 115 39 171 154 129 106 244 231 219 218 204 205 214 240 256 239 236 202 182 235 91 90 82 73 92 82 66 345 322 321 1 58 52 56 46 53 46 41 40 38 53 44 32 31 27 18 14 16 19 17 9 5 356 3 354 354 353 0 7 359 7 24 19 10 10 10 11 6 3 1 359 355 352 342 336 333 327 326 326 324 317 316
161 137 132 131 136 179 148 152 201 222 218 210 216 223 193 195 230 250 257 248 221 184 218 117 93 98 83 92 105 105 211 236 307 25 46 62 65 65 65 96 80 50 39 42 36 35 26 27 22 21 25 16 11 9 3 1 358 356 355 359 0 0 18 33 25 18 15 4 2 358 356 350 348 345 341 338 333 329 324 323 320 316 311 307 301
142 125 127 146 175 204 211 212 189 210 227 225 213 217 176 164 204 232 264 262 259 205 194 128 113 114 114 193 152 164 217 206 138 97 78 75 78 75 51 52 45 40 38 29 31 24 11 16 17 22 20 10 10 5 2 4 10 360 3 354 10 37 32 21 20 14 9 3 356 348 343 340 337 333 328 324 322 320 317 317 312 307 305 309 317
200 125 142 177 180 179 234 267 180 230 208 206 180 100 112 188 211 214 221 235 217 222 202 178 129 128 129 176 206 231 220 112 62 59 62 63 54 47 52 53 50 39 34 23 28 24 14 11 16 20 15 4 13 8 7 10 7 3 354 8 39 35 30 20 13 10 3 1 357 347 337 332 328 327 323 324 323 321 318 316 317 317 318 316 308
221 152 157 169 165 179 224 236 212 186 217 132 99 115 172 201 204 211 214 202 197 215 213 206 154 146 148 157 153 89 69 76 89 86 63 55 54 50 50 55 53 41 28 24 25 19 17 17 15 12 6 8 5 8 8 9 10 6 32 54 44 37 24 12 3 358 11 6 352 341 335 333 331 328 326 325 325 322 321 320 320 319 316 315 315
204 208 181 177 178 198 215 207 165 177 190 180 158 188 186 169 220 210 220 202 166 183 214 146 116 95 73 74 96 108 81 65 73 76 71 63 53 47 51 54 47 31 23 16 20 20 17 7 1 16 7 6 5 4 6 16 18 19 62 58 52 38 25 358 2 16 13 358 343 338 336 336 331 328 326 324 322 321 320 319 317 316 314 313 311
216 222 196 201 178 193 190 87 122 133 148 157 184 200 177 194 214 195 113 32 66 157 136 117 122 141 141 128 91 80 83 79 68 75 78 81 77 60 62 55 45 35 20 17 13 6 1 5 7 359 4 2 7 6 9 7 14 10 80 66 61 39 34 3 23 24 9 347 343 341 340 334 328 324 324 323 322 319 319 316 315 316 317 318 317
230 223 209 199 169 179 172 151 175 165 144 170 200 198 179 194 197 184 150 160 145 58 197 112 114 110 101 91 86 81 75 73 80 77 77 72 63 68 62 57 45 35 17 3 356 6 355 358 359 0 1 2 358 354 7 353 15 348 76 76 60 54 18 358 29 27 0 348 348 345 337 331 323 320 318 319 318 318 318 318 320 317 317 318 320
297 238 213 207 182 177 174 165 153 164 207 204 223 221 157 170 159 176 148 142 168 190 203 161 130 91 85 80 73 84 88 78 63 52 50 59 64 55 54 60 47 39 6 360 351 0 1 354 355 349 352 351 5 356 351 351 340 12 71 75 77 57 41 47 47 16 2 356 351 340 332 327 322 317 316 316 316 316 315 313 312 312 313 314 315
207 233 204 198 190 171 140 168 170 198 209 196 143 174 145 164 165 175 141 153 143 149 138 85 76 90 93 95 99 76 69 62 66 55 53 54 62 82 92 59 57 13 3 355 356 350 346 345 340 346 354 353 347 347 342 345 36 68 63 76 86 57 41 50 56 32 16 0 344 328 321 316 316 315 312 311 309 310 309 310 310 310 312 313 311
183 194 191 174 180 162 162 164 165 191 181 141 137 154 142 180 156 146 141 142 137 135 102 113 122 94 90 90 82 85 79 65 52 43 44 32 24 19 28 24 16 15 3 359 345 347 344 342 342 348 347 352 339 348 343 52 80 70 105 111 94 79 59 43 29 14 4 336 320 317 316 317 315 314 312 310 309 308 307 307 306 309 308 310 309